User: anonymous   Login
Location: Unspecified
(0.0000°N, 0.0000°E)
Time: 04:07:25
(UTC+00:00)
Language:

DELFI C3 - Orbit

View from above orbital plane
View from above orbital plane
View from above satellite
View from above satellite

Ground track
Ground track

The orbit data is extracted from the following two-line orbital elements,

1 32789U 08021G   20190.83693865 +.00000521 +00000-0 +37972-4 0  9990
2 32789 097.4166 232.8902 0010530 237.8883 122.1324 15.07779911665030
Epoch (UTC): 08 July 2020 20:05:11
Eccentricity: 0.0010530
inclination: 97.4166°
perigee height: 536 km
apogee height: 550 km
right ascension of ascending node: 232.8902°
argument of perigee: 237.8883°
revolutions per day: 15.07779911
mean anomaly at epoch: 122.1324°
orbit number at epoch: 66503

The dashed part of the orbit path shows where the satellite is in the earth's shadow,  

DLR